Weather Roundup
Issued by NWS

Home | Current Version | Previous Version | Graphics & Text | Print | Product List | Glossary Off
Versions: 1 2 3 4 5 6 7 8 9 10 11 12 13 14 15 16 17 18 19 20 21 22 23 24 25 26 27 28 29 30 31 32 33 34 35 36 37 38 39 40 41 42 43 44 45 46 47 48 49 50

000
NZUS93 KARX 262159
HRRWXR

CURRENT HOURLY OBSERVATIONS ACROSS
MUCH OF THE UPPER MISSISSIPPI VALLEY
NATIONAL WEATHER SERVICE LA CROSSE WI
500 PM CDT TUE JUL 26 2016


...SOUTHEAST MINNESOTA...


CITY           SKY/WX    TMP DP  RH WIND       PRES   REMARKS
ROCHESTER      MOSUNNY   84  69  60 S7        30.05S
ROCHESTER/MAYO FAIR      87  63  45 SW7       30.04S
WINONA         SUNNY     90  64  43 W6        30.01S HX  91
AUSTIN         SUNNY     84  64  51 SW5       30.05S
ALBERT LEA     SUNNY     84  66  54 SW3       30.05S
DODGE CENTER   SUNNY     88  66  48 W8        30.05S HX  90
PRESTON        SUNNY     84  65  53 CALM      30.05S
OWATONNA       SUNNY     84  64  51 SW7       30.04S
FARIBAULT      SUNNY     86  70  58 SW8       30.04R HX  90
$$

...ELSEWHERE IN MINNESOTA...


CITY           SKY/WX    TMP DP  RH WIND       PRES   REMARKS
MINNEAPOLIS    MOSUNNY   90  63  40 SW17G24   29.98S HX  91
INTNL FALLS    SUNNY     83  63  50 NW9       29.96R
DULUTH         PTSUNNY   79  67  66 W6        29.97S
RED WING       SUNNY     90  61  37 SW14G20   29.98S
REDWOOD FALLS  CLOUDY    87  64  46 SW12      30.00F
MANKATO        SUNNY     84  66  54 SW6       30.03S
WORTHINGTON    SUNNY     84  67  56 S8        30.06F
FAIRMONT       SUNNY     84  66  54 SW7       30.04F
$$

...SOUTHWEST WISCONSIN...


CITY           SKY/WX    TMP DP  RH WIND       PRES   REMARKS
LA CROSSE      SUNNY     89  65  44 SW6       30.00S HX  91
PRAIRIE DU CHI SUNNY     85  59  42 CALM      30.01F
BOSCOBEL       SUNNY     89  67  47 W3        30.01F HX  92
LONE ROCK      NOT AVBL
PLATTEVILLE    MOSUNNY   83  66  56 CALM      30.03F
FORT MC COY    SUNNY     86  64  47 W5        30.02S
MAUSTON-NEW LI PTCLDY    85  68  55 W6        30.01F
VIROQUA        FAIR      85  62  46 CALM      30.04F
WIS DELLS      NOT AVBL
$$

...ELSEWHERE IN WISCONSIN...


CITY           SKY/WX    TMP DP  RH WIND       PRES   REMARKS
MILWAUKEE      MOSUNNY   84  61  45 SE9       30.01S
MADISON        MOSUNNY   86  64  47 N6        30.01F
GREEN BAY      SUNNY     85  69  58 W8        29.97F
EAU CLAIRE     NOT AVBL
BLACK RVR FLS  FAIR      87  65  46 W7        30.00F
MEDFORD        SUNNY     83  65  54 SW10G16   30.00F
WAUSAU         SUNNY     86  64  47 SW10      29.97F
WIS RAPIDS     SUNNY     88  62  41 SW7G16    30.01F
MARSHFIELD     SUNNY     86  65  49 SW13G20   30.00F
RICE LAKE      SUNNY     86  64  46 SW10G16   30.00R
$$

...NORTHEAST IOWA...


CITY           SKY/WX    TMP DP  RH WIND       PRES   REMARKS
WATERLOO       SUNNY     85  64  49 VRB6      30.02S
DUBUQUE        SUNNY     85  63  47 N5        30.04F
DECORAH        MOSUNNY   84  66  54 SE3       30.03F
MASON CITY     MOSUNNY   85  65  51 CALM      30.07R
CHARLES CITY   PTSUNNY   84  68  58 CALM      30.05S
OELWEIN        PTSUNNY   81  64  57 CALM      30.05S
$$

...ELSEWHERE IN IOWA...


CITY           SKY/WX    TMP DP  RH WIND       PRES   REMARKS
DES MOINES     MOSUNNY   86  63  45 SE12      30.01F
IOWA CITY      SUNNY     85  65  51 VRB3      30.02F
FORT DODGE     MOSUNNY   84  68  58 SE6       30.05S
MARSHALLTOWN   MOSUNNY   84  67  56 NE6       30.03S
CEDAR RAPIDS   SUNNY     83  66  56 E3        30.02F
$$

...NORTHERN ILLINOIS...


CITY           SKY/WX    TMP DP  RH WIND       PRES   REMARKS
CHICAGO-OHARE  MOSUNNY   87  63  44 N5        30.00F
CHICAGO-MIDWAY MOSUNNY   86  63  45 E12       30.00S
MOLINE         SUNNY     87  65  47 E6        29.99F
ROCKFORD       MOSUNNY   86  66  51 NW5       30.03S
PEORIA         CLOUDY    84  67  56 W6        29.99F
$$

NOTE: "FAIR" INDICATES FEW OR NO CLOUDS BELOW 12,000 FEET WITH NO
SIGNIFICANT WEATHER AND/OR OBSTRUCTIONS TO VISIBILITY. WIND
SPEEDS ARE IN MILES-PER-HOUR.




USA.gov is the U.S. government's official web portal to all federal, state and local government web resources and services.